TimeCST,TemperatureF,Dew PointF,Humidity,Sea Level PressureIn,VisibilityMPH,Wind Direction,Wind SpeedMPH,Gust SpeedMPH,PrecipitationIn,Events,Conditions,WindDirDegrees,DateUTC
12:35 AM,60.8,59.0,94,30.09,0.2,Calm,Calm,-,N/A,Fog,Fog,0,2012-11-04 05:35:00
12:55 AM,59.0,59.0,100,30.09,7.0,Calm,Calm,-,N/A,,Scattered Clouds,0,2012-11-04 05:55:00
1:15 AM,59.0,59.0,100,30.09,10.0,Calm,Calm,-,N/A,,Scattered Clouds,0,2012-11-04 06:15:00
1:35 AM,59.0,59.0,100,30.08,7.0,Calm,Calm,-,N/A,,Mostly Cloudy,0,2012-11-04 06:35:00
1:55 AM,59.0,57.2,94,30.08,0.2,Calm,Calm,-,N/A,Fog,Fog,0,2012-11-04 06:55:00
1:15 AM,57.2,55.4,94,30.08,0.5,Calm,Calm,-,N/A,Fog,Fog,0,2012-11-04 07:15:00
1:35 AM,57.2,57.2,100,30.08,3.0,Calm,Calm,-,N/A,,Mostly Cloudy,0,2012-11-04 07:35:00
1:55 AM,57.2,55.4,94,30.08,1.0,Calm,Calm,-,N/A,,Overcast,0,2012-11-04 07:55:00
2:15 AM,55.4,55.4,100,30.08,2.0,Calm,Calm,-,N/A,,Overcast,0,2012-11-04 08:15:00
2:35 AM,57.2,55.4,94,30.08,0.2,Calm,Calm,-,N/A,Fog,Fog,0,2012-11-04 08:35:00
3:15 AM,64.4,62.6,94,30.07,1.5,Calm,Calm,-,N/A,,Scattered Clouds,0,2012-11-04 09:15:00
3:35 AM,62.6,60.8,94,30.06,0.5,West,3.5,-,N/A,Fog,Fog,270,2012-11-04 09:35:00
3:55 AM,68.0,66.2,94,30.07,5.0,West,3.5,-,N/A,,Scattered Clouds,280,2012-11-04 09:55:00
4:15 AM,68.0,66.2,94,30.07,4.0,West,4.6,-,N/A,,Scattered Clouds,280,2012-11-04 10:15:00
4:35 AM,68.0,68.0,100,30.08,2.5,WNW,3.5,-,N/A,,Mostly Cloudy,300,2012-11-04 10:35:00
4:55 AM,68.0,68.0,100,30.08,1.8,WNW,4.6,-,N/A,,Overcast,290,2012-11-04 10:55:00
5:15 AM,68.0,66.2,94,30.09,2.0,West,3.5,-,N/A,,Overcast,280,2012-11-04 11:15:00
5:35 AM,68.0,66.2,94,30.10,1.0,West,3.5,-,N/A,,Overcast,280,2012-11-04 11:35:00
5:55 AM,68.0,66.2,94,30.09,0.8,Calm,Calm,-,N/A,,Overcast,0,2012-11-04 11:55:00
6:15 AM,66.2,66.2,100,30.10,0.5,Calm,Calm,-,N/A,Fog,Fog,0,2012-11-04 12:15:00
6:35 AM,66.2,64.4,94,30.10,0.2,West,3.5,-,N/A,Fog,Fog,280,2012-11-04 12:35:00
6:55 AM,66.2,66.2,100,30.11,0.8,Calm,Calm,-,N/A,,Overcast,0,2012-11-04 12:55:00
7:15 AM,68.0,66.2,94,30.12,2.0,Calm,Calm,-,N/A,,Mostly Cloudy,0,2012-11-04 13:15:00
7:35 AM,68.0,68.0,100,30.11,2.5,Calm,Calm,-,N/A,,Clear,0,2012-11-04 13:35:00
7:55 AM,68.0,68.0,100,30.11,4.0,WNW,6.9,-,N/A,,Scattered Clouds,290,2012-11-04 13:55:00
8:15 AM,68.0,68.0,100,30.12,7.0,NW,9.2,17.3,N/A,,Mostly Cloudy,310,2012-11-04 14:15:00
8:35 AM,68.0,68.0,100,30.12,7.0,NW,10.4,17.3,N/A,,Overcast,320,2012-11-04 14:35:00
9:15 AM,71.6,64.4,78,30.11,7.0,NW,10.4,-,N/A,,Clear,310,2012-11-04 15:15:00
9:35 AM,73.4,64.4,73,30.12,7.0,NW,8.1,-,N/A,,Clear,320,2012-11-04 15:35:00
9:55 AM,73.4,62.6,69,30.12,7.0,NNW,6.9,-,N/A,,Clear,330,2012-11-04 15:55:00
10:15 AM,75.2,62.6,65,30.11,7.0,WNW,5.8,-,N/A,,Clear,300,2012-11-04 16:15:00
10:35 AM,77.0,62.6,61,30.10,10.0,NW,6.9,-,N/A,,Clear,320,2012-11-04 16:35:00
10:55 AM,77.0,62.6,61,30.10,10.0,WNW,6.9,-,N/A,,Clear,290,2012-11-04 16:55:00
11:15 AM,77.0,60.8,57,30.09,7.0,WNW,8.1,-,N/A,,Clear,300,2012-11-04 17:15:00
11:35 AM,77.0,60.8,57,30.08,7.0,NW,5.8,-,N/A,,Clear,320,2012-11-04 17:35:00
11:55 AM,78.8,60.8,54,30.07,10.0,NW,5.8,-,N/A,,Clear,310,2012-11-04 17:55:00
12:15 PM,77.0,60.8,57,30.07,10.0,NW,6.9,-,N/A,,Clear,310,2012-11-04 18:15:00
12:35 PM,78.8,59.0,51,30.06,7.0,NNW,8.1,-,N/A,,Clear,330,2012-11-04 18:35:00
12:55 PM,77.0,59.0,54,30.06,10.0,NW,5.8,-,N/A,,Clear,320,2012-11-04 18:55:00
1:15 PM,77.0,59.0,54,30.05,10.0,NW,4.6,-,N/A,,Clear,310,2012-11-04 19:15:00
1:35 PM,77.0,60.8,57,30.05,7.0,NW,5.8,-,N/A,,Clear,310,2012-11-04 19:35:00
1:55 PM,78.8,59.0,51,30.05,7.0,NW,5.8,-,N/A,,Clear,310,2012-11-04 19:55:00
2:15 PM,77.0,59.0,54,30.05,7.0,WNW,8.1,-,N/A,,Clear,290,2012-11-04 20:15:00
2:35 PM,75.2,59.0,57,30.05,10.0,West,8.1,-,N/A,,Clear,270,2012-11-04 20:35:00
2:55 PM,73.4,60.8,65,30.05,10.0,West,6.9,-,N/A,,Clear,270,2012-11-04 20:55:00
3:15 PM,71.6,59.0,64,30.03,10.0,West,3.5,-,N/A,Rain,Light Rain,270,2012-11-04 21:15:00
3:35 PM,69.8,60.8,73,30.02,10.0,South,3.5,-,N/A,Rain,Light Rain,180,2012-11-04 21:35:00
3:55 PM,69.8,62.6,78,30.02,10.0,South,3.5,-,N/A,,Clear,190,2012-11-04 21:55:00
4:15 PM,69.8,60.8,73,30.03,7.0,North,4.6,-,N/A,,Clear,350,2012-11-04 22:15:00
4:55 PM,68.0,59.0,73,30.04,10.0,NW,8.1,-,N/A,,Clear,310,2012-11-04 22:55:00
5:15 PM,68.0,59.0,73,30.04,7.0,NW,6.9,-,N/A,,Clear,310,2012-11-04 23:15:00
5:35 PM,68.0,59.0,73,30.04,10.0,NW,3.5,-,N/A,,Clear,320,2012-11-04 23:35:00
5:55 PM,66.2,59.0,78,30.04,7.0,NNW,4.6,-,N/A,,Clear,330,2012-11-04 23:55:00
6:15 PM,66.2,59.0,78,30.04,10.0,NNW,3.5,-,N/A,,Clear,330,2012-11-05 00:15:00
6:35 PM,64.4,59.0,83,30.04,7.0,Calm,Calm,-,N/A,,Clear,0,2012-11-05 00:35:00
6:55 PM,62.6,59.0,88,30.05,10.0,Calm,Calm,-,N/A,,Clear,0,2012-11-05 00:55:00
7:15 PM,64.4,60.8,88,30.05,10.0,Calm,Calm,-,N/A,,Clear,0,2012-11-05 01:15:00
7:35 PM,62.6,59.0,88,30.05,10.0,Calm,Calm,-,N/A,,Clear,0,2012-11-05 01:35:00
7:55 PM,60.8,59.0,94,30.06,7.0,Calm,Calm,-,N/A,,Clear,0,2012-11-05 01:55:00
8:15 PM,59.0,59.0,100,30.06,7.0,Calm,Calm,-,N/A,,Clear,0,2012-11-05 02:15:00
8:35 PM,59.0,57.2,94,30.07,10.0,Calm,Calm,-,N/A,,Clear,0,2012-11-05 02:35:00
8:55 PM,59.0,59.0,100,30.07,10.0,NNW,4.6,-,N/A,,Clear,330,2012-11-05 02:55:00
9:15 PM,62.6,59.0,88,30.07,10.0,NNW,4.6,-,N/A,,Clear,340,2012-11-05 03:15:00
9:35 PM,62.6,59.0,88,30.07,10.0,Calm,Calm,-,N/A,,Clear,0,2012-11-05 03:35:00
9:55 PM,60.8,59.0,94,30.07,10.0,Calm,Calm,-,N/A,,Clear,0,2012-11-05 03:55:00
10:15 PM,60.8,59.0,94,30.07,10.0,Calm,Calm,-,N/A,,Clear,0,2012-11-05 04:15:00
10:35 PM,59.0,57.2,94,30.07,3.0,Calm,Calm,-,N/A,,Clear,0,2012-11-05 04:35:00